EW7133 Weather Reports


time (UTC)temp
F
wind
direction
speed
knots
gust
knots
rain 1hr
in
rain 24hr
in
rain mn
in
humidity
%
barometer
mb
20260506103009 64 166 0.0 0.0 0.00 0.00 0.00 82 1007.0
20260506101509 64 192 0.0 0.0 0.00 0.00 0.00 82 1007.1
20260506100049 64 205 0.0 0.0 0.00 0.00 0.00 81 1007.3
20260506094612 64 170 0.0 0.0 0.00 0.00 0.00 81 1007.1
20260506093037 64 283 0.0 0.0 0.00 0.00 0.00 80 1007.1
20260506091532 65 175 0.0 0.0 0.00 0.00 0.00 78 1007.0
20260506090012 65 35 0.0 0.0 0.00 0.00 0.00 77 1007.2
20260506084513 65 252 0.0 0.0 0.00 0.00 0.00 77 1007.2
20260506083058 65 188 0.0 0.0 0.00 0.00 0.00 76 1007.3
20260506081556 65 360 0.0 0.0 0.00 0.00 0.00 75 1007.3
20260506073041 66 190 0.0 0.0 0.00 0.00 0.00 71 1007.5
20260506071545 66 167 0.0 0.0 0.00 0.00 0.00 70 1007.6
20260506061539 67 228 0.0 0.0 0.00 0.00 0.00 68 1008.0
20260506044544 67 188 0.0 0.0 0.00 0.00 0.00 66 1008.4
20260506043027 68 190 0.0 0.0 0.00 0.00 0.00 66 1008.5
20260506041526 68 161 0.0 0.0 0.00 0.00 0.00 65 1008.2
20260506040010 69 246 0.0 0.0 0.00 0.00 0.00 63 1008.4
20260506034511 69 131 0.0 0.0 0.00 0.00 0.00 61 1008.4
20260506033051 70 259 0.0 0.0 0.00 0.00 0.00 59 1008.2
20260506031557 70 188 0.0 0.0 0.00 0.00 0.00 57 1008.2
20260506030036 71 170 0.0 0.0 0.00 0.00 0.00 55 1008.1
20260506024543 72 196 0.0 0.0 0.00 0.00 0.00 54 1008.2
20260506023014 72 205 0.0 0.0 0.00 0.00 0.00 54 1008.2
20260506021514 72 226 0.0 0.0 0.00 0.00 0.00 53 1008.1
20260506020056 73 178 0.0 0.0 0.00 0.00 0.00 52 1008.1
20260506014556 73 169 0.0 0.0 0.00 0.00 0.00 52 1008.1
20260506013044 73 187 0.0 0.0 0.00 0.00 0.00 52 1007.8
20260506011544 73 82 0.0 0.0 0.00 0.00 0.00 51 1007.6
20260506010046 74 190 0.0 0.0 0.00 0.00 0.00 49 1007.5
20260506004542 75 179 0.0 0.0 0.00 0.00 0.00 47 1007.3
20260506003042 75 360 0.0 0.0 0.00 0.00 0.00 46 1007.2
20260506001542 75 160 0.0 0.0 0.00 0.00 0.00 45 1007.0
20260506000041 76 177 0.0 0.0 0.00 0.00 0.00 43 1007.0
20260505234547 76 360 0.0 0.0 0.00 0.00 0.00 43 1006.9
20260505233023 76 260 0.0 0.0 0.00 0.00 0.00 43 1006.8
20260505231523 77 225 0.0 0.0 0.00 0.00 0.00 42 1006.8
20260505230015 77 217 0.0 0.0 0.00 0.00 0.00 43 1006.7
20260505224504 77 116 0.0 0.0 0.00 0.00 0.00 43 1006.6
20260505223046 77 215 0.0 0.0 0.00 0.00 0.00 42 1006.5
20260505221546 78 225 0.0 0.0 0.00 0.00 0.00 44 1006.3
20260505220032 78 167 0.0 0.0 0.00 0.00 0.00 41 1006.3
20260505214528 79 360 0.0 0.0 0.00 0.00 0.00 41 1006.3
20260505213011 79 187 0.0 0.0 0.00 0.00 0.00 41 1006.3
20260505211513 80 223 0.0 0.0 0.00 0.00 0.00 39 1006.1
20260505210051 81 234 0.0 0.0 0.00 0.00 0.00 39 1006.1
20260505204553 81 360 0.0 0.0 0.00 0.00 0.00 38 1005.9
20260505203032 81 237 0.0 0.0 0.00 0.00 0.00 38 1006.1
20260505201530 82 225 0.0 0.0 0.00 0.00 0.00 37 1006.1
20260505200013 82 191 0.0 0.0 0.00 0.00 0.00 37 1006.2
20260505194511 82 200 0.0 0.0 0.00 0.00 0.00 37 1006.3
20260505193110 82 222 0.0 0.0 0.00 0.00 0.00 34 1006.2
20260505191609 82 215 0.0 0.0 0.00 0.00 0.00 35 1006.3
20260505190050 82 163 0.0 0.0 0.00 0.00 0.00 37 1006.6
20260505184531 83 227 0.0 0.0 0.00 0.00 0.00 38 1006.7
20260505183035 83 360 0.0 0.0 0.00 0.00 0.00 39 1006.9
20260505181508 82 182 0.0 0.0 0.00 0.00 0.00 41 1007.1
20260505180006 81 256 0.0 0.0 0.00 0.00 0.00 41 1007.4
20260505174553 81 206 0.0 0.0 0.00 0.00 0.00 43 1007.6
20260505173046 81 199 0.0 0.0 0.00 0.00 0.00 44 1007.6
20260505171530 80 220 0.0 0.0 0.00 0.00 0.00 47 1007.7
20260505170023 80 242 0.0 0.0 0.00 0.00 0.00 50 1007.9
20260505164600 79 242 0.0 0.0 0.00 0.00 0.00 47 1008.2
20260505163056 78 360 0.0 0.0 0.00 0.00 0.00 51 1008.5
20260505161537 77 222 0.0 0.0 0.00 0.00 0.00 52 1008.6
20260505153012 74 252 0.0 0.0 0.00 0.00 0.00 56 1009.3
20260505151554 73 211 0.0 0.0 0.00 0.00 0.00 59 1009.4
20260505124550 63 268 0.0 0.0 0.00 0.00 0.00 74 1009.9
20260505123047 62 246 0.0 0.0 0.00 0.00 0.00 77 1010.0
20260505121533 62 241 0.0 0.0 0.00 0.00 0.00 79 1010.0
20260505120034 60 214 0.0 0.0 0.00 0.00 0.00 83 1009.6
20260505114532 60 98 0.0 0.0 0.00 0.00 0.00 82 1009.8
20260505113034 58 98 0.0 0.0 0.00 0.00 0.00 84 1009.8
20260505111531 56 89 0.0 0.0 0.00 0.00 0.00 89 1009.8